Weather History for KDMO - October, 2013

Change the Weather History Date:

Thursday, October 3, 2013

  Actual Average Record
Temperature  
Mean Temperature 78 °F 62 °F  
Max Temperature 86 °F 73 °F 93 °F (1976)
Min Temperature 69 °F 52 °F 30 °F (1987)
Degree Days  
Heating Degree Days 0 5  
Month to date heating degree days 0 14  
Since 1 July heating degree days 19 59  
Cooling Degree Days 13 2  
Month to date cooling degree days 30 6  
Year to date cooling degree days 1467 1456  
Growing Degree Days 26 (Base 50)    
Moisture  
Dew Point 68 °F    
Average Humidity 79    
Maximum Humidity 97    
Minimum Humidity 61    
Precipitation  
Precipitation 0.02 in 0.13 in 5.20 in (1986)
Month to date precipitation 0.02 0.40  
Year to date precipitation 33.49 32.45  
Sea Level Pressure  
Sea Level Pressure 29.87 in    
Wind  
Wind Speed 13 mph (South)    
Max Wind Speed 21 mph    
Max Gust Speed 26 mph    
Visibility 10 miles    
Events Rain , Thunderstorm    
T = Trace of Precipitation, MM = Missing Value Source: NWS Daily Summary

Daily Weather History Graph

Daily Weather History Graph

Search for Another Location

Airport or City:

Trip Planner

Search our weather history database for the weather conditions in past years. The results will help you decide how hot, cold, wet, or windy it might be!

Date:

Astronomy

Oct. 03, 2013 Rise Set
Actual Time 7:10 AM CDT 6:51 PM CDT
Civil Twilight 6:44 AM CDT 7:18 PM CDT
Nautical Twilight 6:13 AM CDT 7:49 PM CDT
Astronomical Twilight 5:42 AM CDT 8:20 PM CDT
Moon 5:45 AM CDT 6:00 PM CDT
Length of Visible Light 12h 34m
Length of Day
11h 41m
Waning Crescent, 2% of the Moon is Illuminated
Oct 3
Waning Crescent
Oct 4
New
Oct 11
First Quarter
Oct 18
Full
Oct 26
Last Quarter

Hourly Weather History & Observations

Time (CDT) Temp. Heat Index Dew Point Humidity Pressure Visibility Wind Dir Wind Speed Gust Speed Precip Events Conditions
12:53 AM 71.1 °F - 68.0 °F 90% 29.92 in 10.0 mi South 8.1 mph - N/A   Clear
1:53 AM 70.0 °F - 68.0 °F 93% 29.91 in 10.0 mi South 9.2 mph - N/A   Partly Cloudy
2:53 AM 70.0 °F - 66.9 °F 90% 29.90 in 10.0 mi South 11.5 mph - N/A   Clear
3:53 AM 69.1 °F - 66.9 °F 93% 29.90 in 10.0 mi South 9.2 mph - N/A   Clear
4:53 AM 70.0 °F - 66.9 °F 90% 29.90 in 10.0 mi South 11.5 mph - N/A   Scattered Clouds
5:48 AM 69.8 °F - 66.2 °F 88% 29.92 in 6.0 mi South 12.7 mph - 0.02 in Rain , Thunderstorm Light Thunderstorms and Rain
5:53 AM 70.0 °F - 68.0 °F 93% 29.91 in 8.0 mi South 10.4 mph - 0.02 in Rain , Thunderstorm Light Thunderstorms and Rain
6:16 AM 69.8 °F - 66.2 °F 88% 29.92 in 10.0 mi South 8.1 mph - 0.00 in   Mostly Cloudy
6:53 AM 69.1 °F - 66.9 °F 93% 29.89 in 10.0 mi South 9.2 mph - 0.00 in   Partly Cloudy
7:53 AM 70.0 °F - 68.0 °F 93% 29.90 in 10.0 mi South 9.2 mph - N/A   Mostly Cloudy
8:53 AM 72.0 °F - 68.0 °F 87% 29.91 in 10.0 mi South 10.4 mph - N/A   Clear
9:53 AM 75.0 °F - 69.1 °F 82% 29.90 in 10.0 mi SSW 12.7 mph - N/A   Clear
10:53 AM 78.1 °F - 69.1 °F 74% 29.91 in 10.0 mi SW 16.1 mph - N/A   Mostly Cloudy
11:53 AM 82.0 °F 86.3 °F 71.1 °F 69% 29.89 in 10.0 mi SSW 13.8 mph - N/A   Mostly Cloudy
12:30 PM 80.6 °F 83.9 °F 69.8 °F 70% 29.90 in 10.0 mi South 11.5 mph - N/A   Scattered Clouds
12:53 PM 82.0 °F 85.5 °F 69.1 °F 65% 29.87 in 10.0 mi South 13.8 mph - N/A   Scattered Clouds
1:53 PM 84.0 °F 88.4 °F 70.0 °F 63% 29.85 in 10.0 mi South 13.8 mph - N/A   Partly Cloudy
2:53 PM 84.0 °F 88.4 °F 70.0 °F 63% 29.83 in 10.0 mi SSE 13.8 mph - N/A   Partly Cloudy
3:53 PM 84.9 °F 88.8 °F 69.1 °F 59% 29.82 in 10.0 mi South 16.1 mph - N/A   Clear
4:53 PM 82.9 °F 86.5 °F 69.1 °F 63% 29.80 in 10.0 mi South 18.4 mph 24.2 mph N/A   Clear
5:53 PM 82.0 °F 85.5 °F 69.1 °F 65% 29.80 in 10.0 mi South 13.8 mph - N/A   Clear
6:53 PM 79.0 °F - 68.0 °F 69% 29.81 in 10.0 mi SSE 11.5 mph - N/A   Clear
7:53 PM 75.9 °F - 68.0 °F 76% 29.81 in 10.0 mi SSE 11.5 mph - N/A   Clear
8:53 PM 75.0 °F - 69.1 °F 82% 29.83 in 10.0 mi SSE 12.7 mph - N/A   Clear
9:53 PM 75.0 °F - 69.1 °F 82% 29.83 in 10.0 mi South 12.7 mph - N/A   Clear
11:53 PM 73.9 °F - 68.0 °F 82% 29.85 in 10.0 mi South 11.5 mph - N/A   Clear